Startseite
Über Mich
AHP4
Galerie
Sehschlangen
Tourenbuch
Bookmarks
Elektronik
Bewertung
Geschichten
[Tagesmessung] [Jahreswerte] [Information]

Messwerte vom 02.02.2022

Die letzten Messwerte von 23:58:47 Uhr:
KategorieMesswert
Temperatur [°C]0
Luftdruck [mBar]1004
Sonneneinstrahlung0
Wind [km/h]2 aus Südwest
Niederschlag [l/m²]0
rel.Luftfeucht.96.6%
CO2 [ppm]553

Diagramme
Messwerte vom 02.02.2022
Tagesaggregation
KategorieMinimumMaximumSchnittSumme
Temperatur [°C]083.6708
Luftdruck [mBar]9871006996.0375
Sonneneinstrahlung24374.5646
Wind [km/h]35
rF [%]72.196.694.35
Niederschlag [l/m²]1.03
CO2 [ppm]401638429.1
Einordnung alsKalter Tag

Messungen an benachbarten Tagen: Zur Jahresaggregation 2022
Tabelle aller Messwerte
UhrzeitTemperatur [°C]Luftdruck [mBar]SonneWind [km/h]RichtungRegen [l/m²]rF [%]CO2 [ppm]
00:01:48 5 988 0 10 W 0 96.6 421
00:04:46 5 987 0 7 S 0 96.6 416
00:07:48 5 988 0 8 NW 0 96.6 418
00:10:46 5 988 0 16 0 96.6 416
00:13:47 5 988 0 21 W 0 96.6 410
00:16:48 5 988 0 9 S 0 96.6 413
00:19:47 5 987 0 4 W 0 96.6 425
00:22:45 5 987 0 18 S 0 96.6 427
00:25:46 5 987 0 10 S 0 96.6 416
00:28:48 5 987 0 14 NW 0 96.6 410
00:31:47 5 987 0 17 SW 0 96.6 410
00:34:45 5 988 0 9 W 0 96.6 413
00:37:47 5 987 0 13 W 0 96.6 407
00:40:48 5 988 0 22 SW 0 96.6 407
00:43:48 5 987 0 13 NW 0 96.6 404
00:46:46 5 987 0 7 SW 0 96.6 407
00:49:47 5 987 0 16 W 0 96.6 407
00:52:46 5 988 0 15 NW 0 96.6 404
00:55:50 5 987 0 19 W 0 96.6 405
00:58:45 5 987 0 6 W 0 96.6 407
01:01:47 5 988 0 6 SW 0 96.6 404
01:04:46 5 988 0 15 SW 0 96.6 405
01:07:48 5 988 0 8 NW 0 96.6 404
01:10:46 5 987 0 14 S 0 96.6 405
01:13:46 5 987 0 12 W 0 96.6 407
01:16:46 5 987 0 7 W 0 96.6 407
01:19:48 5 987 0 10 W 0 96.6 407
01:22:45 5 987 0 12 SW 0 96.6 407
01:25:45 5 988 0 21 W 0 96.6 401
01:28:48 5 987 0 14 SW 0 96.6 407
01:31:47 5 988 0 15 SW 0 96.6 404
01:34:46 5 988 0 10 W 0 96.6 404
01:37:46 5 988 0 29 W 0 96.6 404
01:40:50 5 988 0 5 NW 0 96.6 404
01:43:47 5 988 0 21 NW 0.2575 96.6 401
01:46:46 5 988 0 13 W 0 96.6 407
01:49:48 5 989 0 21 SW 0 96.6 404
01:52:48 5 988 0 7 NO 0 96.6 407
01:55:46 5 989 0 2 W 0 96.6 404
01:58:48 4 988 0 8 W 0 96.6 406
02:01:47 4 988 0 18 W 0 96.6 404
02:04:47 4 988 0 16 W 0 96.6 404
02:07:48 4 988 0 17 W 0 96.6 404
02:10:46 4 988 0 8 SW 0 96.6 404
02:13:49 4 988 0 9 SW 0 96.6 407
02:16:46 4 988 0 7 SO 0 96.6 407
02:19:47 4 988 0 2 SW 0 96.6 407
02:22:48 4 988 0 6 NW 0 96.6 404
02:25:49 4 988 0 13 W 0 96.6 404
02:28:47 4 988 0 9 SW 0 96.6 407
02:31:47 4 988 0 13 SW 0 96.6 406
02:34:47 4 988 0 4 NW 0 96.6 404
02:37:46 4 988 0 9 W 0 96.6 404
02:40:47 4 988 0 8 SW 0 96.6 407
02:43:45 4 988 0 6 O 0 96.6 405
02:46:48 4 988 0 7 SW 0 96.6 407
02:49:48 4 988 0 12 SW 0 96.6 406
02:52:48 4 988 0 16 NW 0 96.6 404
02:55:46 4 990 0 10 W 0 96.6 407
02:58:49 4 988 0 15 NW 0.2575 96.6 404
03:01:48 4 989 0 16 W 0 96.6 407
03:04:46 4 989 0 9 W 0 96.6 404
03:07:48 4 989 0 19 NW 0 96.6 404
03:10:49 4 988 0 20 SW 0 96.6 405
03:13:48 4 989 0 16 W 0 96.6 404
03:16:47 4 989 0 18 SW 0 96.6 407
03:19:47 4 988 0 12 W 0 96.6 404
03:22:49 4 989 0 17 NW 0 96.6 404
03:25:46 4 988 0 8 W 0 96.6 405
03:28:47 4 988 0 8 SW 0 96.6 402
03:31:46 4 989 0 6 SW 0 96.6 407
03:34:47 4 989 0 10 NW 0 96.6 404
03:37:48 4 989 0 8 NO 0 96.6 401
03:40:49 4 989 0 13 NW 0 96.6 407
03:43:47 4 988 0 12 W 0 96.6 406
03:46:47 4 989 0 21 NW 0 96.6 407
03:49:47 4 988 0 9 W 0 96.6 407
03:52:47 4 988 0 20 SW 0 96.6 404
03:55:46 4 989 0 4 SO 0 96.6 409
03:58:48 4 988 0 8 SW 0 96.6 404
04:01:47 4 989 0 12 W 0 96.6 407
04:04:47 4 989 0 14 NW 0 96.6 406
04:07:46 4 989 0 7 S 0 96.6 407
04:10:47 4 989 0 5 W 0 96.6 407
04:13:46 4 989 0 7 S 0 96.6 404
04:16:47 4 989 0 8 W 0 96.6 404
04:19:48 4 990 0 10 W 0 96.6 404
04:22:49 4 989 0 8 SW 0 96.6 404
04:25:48 4 990 0 12 SW 0 96.6 406
04:28:47 4 989 0 7 NW 0 96.6 406
04:31:47 4 989 0 16 W 0 96.6 407
04:34:46 4 990 0 10 SW 0 96.6 407
04:37:46 4 990 0 7 SW 0 96.6 405
04:40:48 4 989 0 11 W 0 96.6 407
04:43:47 4 990 0 8 SW 0 96.6 407
04:46:47 4 989 0 21 SW 0 96.6 407
04:49:49 4 990 0 21 SW 0 96.6 404
04:52:45 4 990 0 13 S 0 96.6 404
04:55:49 4 989 0 19 NW 0 96.6 405
04:58:47 4 990 0 8 NW 0 96.6 407
05:01:46 4 991 0 7 W 0 96.6 404
05:04:46 4 990 0 7 W 0 96.6 407
05:07:46 4 990 0 4 W 0 96.6 407
05:10:45 4 990 0 7 N 0 96.6 407
05:13:48 4 990 0 17 SO 0 96.6 407
05:16:46 4 990 0 7 W 0 96.6 404
05:19:45 4 990 0 13 W 0 96.6 407
05:22:46 4 991 0 13 S 0 96.6 407
05:25:46 4 990 0 6 SO 0 96.6 404
05:28:47 4 991 0 9 NO 0 96.6 407
05:31:47 4 990 0 17 NW 0 96.6 404
05:34:48 4 990 0 10 SW 0 96.6 404
05:37:44 4 991 0 6 O 0 96.6 404
05:40:46 4 990 0 7 N 0 96.1 407
05:43:45 4 990 0 5 NW 0 96.3 404
05:46:44 4 990 0 9 W 0 96.4 404
05:49:48 4 991 0 8 NW 0 96 404
05:52:47 4 991 0 11 SW 0 95.9 407
05:55:48 4 991 0 8 S 0 95.8 407
05:58:45 4 990 0 11 W 0 95.7 406
06:01:47 4 990 0 10 W 0 95.6 404
06:04:45 4 991 0 5 W 0 95.2 404
06:07:47 4 991 0 5 O 0 94.8 407
06:10:47 4 991 0 5 S 0 95.1 407
06:13:48 4 991 0 10 SO 0 95.4 404
06:16:47 4 991 0 8 W 0 95.5 407
06:19:49 4 991 0 5 NO 0 95.6 404
06:22:52 4 991 0 6 SW 0 95.8 404
06:25:46 4 991 0 9 W 0 95.1 406
06:28:47 4 991 0 13 NW 0 94.9 404
06:31:46 4 991 0 5 SW 0 94.6 407
06:34:47 4 991 0 13 SW 0 94.8 407
06:37:47 4 991 0 17 NW 0 94.9 406
06:40:45 4 991 0 6 W 0 94.9 403
06:43:47 4 991 0 7 O 0 95 404
06:46:46 4 991 0 8 SW 0 94.9 407
06:49:45 4 991 0 6 S 0 95.1 406
06:52:46 4 991 0 14 S 0 95.2 404
06:55:46 4 991 0 8 SW 0 95.1 407
06:58:47 4 991 0 15 SO 0 94.9 402
07:01:45 4 991 0 4 N 0 94.9 406
07:04:45 4 991 0 24 W 0 95.1 404
07:07:45 4 991 0 17 W 0 95.1 407
07:10:46 4 991 0 8 N 0 95.2 407
07:13:47 4 991 0 14 SW 0 95.2 406
07:16:47 4 991 0 10 W 0 95.3 406
07:19:46 4 991 0 22 W 0 95.5 407
07:22:47 4 991 0 14 SW 0 95.6 404
07:25:47 4 991 0 11 NW 0 95.6 406
07:28:45 4 991 0 7 NW 0 95.6 407
07:31:46 4 991 0 12 W 0 95.8 407
07:34:46 4 991 4 6 SW 0 95.7 407
07:37:44 4 991 5 4 SW 0 96 403
07:40:46 4 991 8 16 S 0 96.4 407
07:43:47 4 991 11 12 S 0 96.6 407
07:46:46 4 991 18 6 W 0 96.6 404
07:49:47 4 991 26 6 W 0 96.6 406
07:52:47 4 991 35 9 W 0 96.6 413
07:55:46 4 991 38 9 SW 0 96.6 415
07:58:45 4 991 45 4 W 0 96.6 424
08:01:49 4 992 50 18 W 0 96.6 433
08:04:50 4 992 58 18 W 0 96.6 430
08:07:48 4 992 63 4 S 0 96.6 428
08:10:49 4 991 71 10 NW 0 96.6 431
08:13:46 4 992 106 7 SW 0 96.6 436
08:16:48 4 992 110 11 W 0 96.6 436
08:19:49 4 992 126 14 S 0 96.6 427
08:22:49 4 992 134 12 W 0 96.6 433
08:25:48 4 993 136 4 W 0 96.6 427
08:28:47 4 992 146 5 W 0 96.6 428
08:31:47 4 992 143 7 S 0 96.6 424
08:34:47 4 993 150 11 W 0 96.6 421
08:37:51 4 993 131 8 NW 0 96.6 421
08:40:48 4 993 144 14 SW 0 96.6 415
08:43:49 4 994 165 4 W 0 96.6 413
08:46:48 4 994 159 13 SW 0 96.6 413
08:49:48 4 993 170 8 W 0 96.6 406
08:52:48 4 993 176 9 W 0 96.6 407
08:55:51 4 994 183 15 NW 0 96.6 413
08:58:49 5 994 186 5 W 0 96.5 418
09:01:49 5 994 179 12 SW 0 96.5 430
09:04:47 5 993 177 10 W 0 96.5 430
09:07:49 5 994 176 6 SW 0 96.1 436
09:10:46 5 993 182 6 W 0 95.8 431
09:13:46 5 994 195 12 W 0 95.5 427
09:16:50 5 994 194 8 NW 0 95.4 421
09:19:47 5 994 185 7 W 0 95.3 431
09:22:48 5 994 194 24 W 0 95.3 427
09:25:48 5 994 197 6 S 0 95.5 431
09:28:48 5 994 195 8 NW 0 95.8 421
09:31:45 5 995 193 14 N 0 95.9 415
09:34:49 5 994 192 9 W 0 95.6 421
09:37:49 5 995 191 18 W 0 95.3 427
09:40:48 5 995 191 6 W 0 95.1 439
09:43:46 5 995 186 13 W 0 95 442
09:46:50 5 994 191 10 W 0 95.3 444
09:49:48 5 994 193 6 SW 0 95.1 445
09:52:46 5 995 192 3 NW 0 94.8 448
09:55:47 5 995 195 3 N 0 94.3 451
09:58:46 5 995 194 14 W 0 94.2 444
10:01:48 5 995 194 6 NW 0 94.3 445
10:04:47 5 995 196 9 NW 0 94 448
10:07:46 5 995 198 8 N 0 93.7 454
10:10:49 5 995 203 9 S 0 94.4 454
10:13:48 5 995 200 21 SW 0 93.9 453
10:16:47 5 995 196 10 W 0 93.7 448
10:19:49 5 995 202 14 W 0 93.2 442
10:22:48 5 995 204 15 SW 0 93 441
10:25:48 5 995 208 5 W 0 92.7 442
10:28:50 5 995 204 11 W 0 92.1 439
10:31:50 5 995 201 17 NW 0 89.7 442
10:34:48 5 995 206 15 SW 0 88.6 445
10:37:49 5 995 201 5 NW 0 88.8 445
10:40:47 5 995 204 13 W 0 88.9 451
10:43:50 5 995 208 13 NW 0 87.1 454
10:46:48 5 995 200 12 W 0 87.2 451
10:49:48 6 995 210 10 W 0 87.3 449
10:52:49 6 995 205 17 NW 0 85.3 449
10:55:45 6 995 198 4 W 0 85.3 447
10:58:47 6 995 202 13 W 0 86.5 450
11:01:48 6 995 198 17 W 0 86.3 453
11:04:46 6 995 208 10 N 0 86.3 442
11:07:48 5 995 207 9 NW 0 86.3 433
11:10:46 5 995 214 9 W 0 86.5 433
11:13:46 5 995 216 16 W 0 87.5 436
11:16:48 6 995 208 13 NW 0 86.2 433
11:19:48 6 995 208 28 W 0 84.9 430
11:22:47 6 995 216 12 W 0 84.7 427
11:25:47 6 996 211 8 W 0 85.4 436
11:28:48 6 995 216 8 SO 0 85.1 427
11:31:47 6 996 216 19 W 0 84.9 427
11:34:45 6 995 215 13 W 0 83.3 427
11:37:48 6 996 217 8 SW 0 84 447
11:40:50 6 996 214 12 NW 0 82.6 443
11:43:47 6 995 213 8 W 0 82.3 439
11:46:48 6 996 215 5 NW 0 82 430
11:49:49 6 996 215 9 NW 0 81.6 433
11:52:48 6 996 219 16 NW 0 81.1 427
11:55:45 6 996 214 4 O 0 81.5 417
11:58:50 6 996 213 10 W 0 82.8 424
12:01:46 6 995 213 14 W 0 82.7 430
12:04:48 6 997 206 20 W 0 83 430
12:07:51 6 996 197 8 NW 0 83.7 424
12:10:47 6 996 199 19 W 0 83.8 418
12:13:47 5 997 198 12 W 0 83.5 415
12:16:48 5 997 209 9 W 0 84.2 410
12:19:48 6 997 182 17 W 0 84.9 415
12:22:50 6 997 181 22 NW 0 84.7 405
12:25:47 7 997 184 7 SW 0 84.4 407
12:28:45 7 998 194 4 W 0 84.3 406
12:31:48 8 998 224 3 W 0 84.6 408
12:34:49 8 997 222 7 SW 0 82.5 407
12:37:47 8 998 221 7 SW 0 80.7 407
12:40:47 7 997 221 7 W 0 80 407
12:43:46 7 997 219 15 S 0 81 404
12:46:46 7 997 213 12 W 0 82.2 404
12:49:49 7 998 214 8 SO 0 83 407
12:52:48 7 998 216 10 SO 0 80.9 407
12:55:47 7 998 225 12 W 0 79.7 406
12:58:48 7 998 226 12 SW 0 79.1 407
13:01:49 8 998 226 5 SW 0 81.5 406
13:04:34 6 998 223 16 NW 0 72.1 404
13:07:48 8 998 223 13 SW 0 76.4 404
13:10:46 7 997 225 3 S 0 78.9 403
13:13:49 7 997 208 13 W 0 78.7 406
13:16:48 7 998 198 8 O 0 79.8 407
13:19:48 7 997 210 16 W 0 80.4 407
13:22:48 6 998 228 21 W 0 82.6 407
13:25:47 6 998 226 5 O 0 85.7 403
13:28:47 6 998 220 9 S 0 87.1 407
13:31:47 6 998 206 15 SW 0 84.5 404
13:34:47 6 998 204 9 W 0 83.6 404
13:37:48 6 998 210 8 W 0 84.8 407
13:40:49 5 998 228 3 N 0 88.2 406
13:43:47 5 998 224 11 W 0 88.6 406
13:46:47 5 998 230 12 NW 0 90.2 407
13:49:47 6 998 222 14 N 0 88.6 403
13:52:50 6 998 223 35 NW 0 86.6 405
13:55:51 6 998 210 21 NW 0 86.8 407
13:58:49 5 998 189 24 NW 0.2575 87.6 407
14:01:45 4 998 185 8 O 0 91 407
14:04:46 3 998 207 8 O 0.2575 95.2 404
14:07:46 3 998 213 10 N 0 96.1 405
14:10:49 3 998 214 5 NW 0 96.6 407
14:13:49 3 998 206 9 W 0 96.6 404
14:16:47 4 998 197 4 W 0 96.6 404
14:19:49 4 998 212 10 W 0 96.6 407
14:22:51 4 998 196 4 NW 0 96.6 407
14:25:47 4 998 195 9 N 0 96.6 407
14:28:47 4 998 209 11 SW 0 96.6 406
14:31:47 4 998 227 3 W 0 96.6 407
14:34:46 4 998 223 8 W 0 96.6 407
14:37:49 4 998 229 14 NW 0 96.6 403
14:40:48 4 998 228 6 NW 0 96.6 406
14:43:48 4 999 223 8 NW 0 96.6 404
14:46:47 4 998 221 11 S 0 96 406
14:49:47 5 998 220 13 W 0 94.7 407
14:52:45 5 998 220 9 N 0 94.9 407
14:55:48 5 998 190 12 W 0 94.4 404
14:58:47 5 998 190 11 W 0 94.4 407
15:01:48 5 998 185 15 NW 0 94.1 406
15:04:45 5 999 186 7 S 0 94.6 407
15:07:49 5 998 193 15 NW 0 94 405
15:10:49 5 998 202 13 NW 0 94.1 404
15:13:46 5 998 217 4 SW 0 95 404
15:16:47 5 999 219 5 SW 0 95.2 403
15:19:49 5 999 222 12 W 0 95.4 407
15:22:46 4 998 218 14 W 0 95.3 404
15:25:49 4 998 231 14 SW 0 94.4 407
15:28:49 4 999 215 20 SW 0 94.5 407
15:31:47 4 998 228 4 N 0 94.4 407
15:34:48 4 999 242 17 W 0 94.9 404
15:37:47 4 999 243 5 W 0 95.2 401
15:40:48 4 999 240 4 W 0 95.7 407
15:43:47 4 999 230 20 W 0 95.7 407
15:46:48 4 999 228 8 NW 0 94.8 405
15:49:50 4 999 188 6 NW 0 94.4 407
15:52:47 4 999 169 6 W 0 94.7 404
15:55:50 4 999 172 16 W 0 94.7 405
15:58:47 4 1000 184 16 N 0 94.5 404
16:01:48 4 999 164 10 W 0 94.5 405
16:04:48 4 1000 170 10 S 0 94.7 407
16:07:49 4 1000 165 13 NW 0 94.7 407
16:10:50 4 1000 174 18 NW 0 94.6 409
16:13:48 4 1000 178 7 NW 0 94.3 404
16:16:48 4 1000 192 7 W 0 94.7 407
16:19:49 4 1000 198 23 NW 0 94.7 404
16:22:50 4 1001 201 20 NW 0 94 404
16:25:47 4 1001 193 15 W 0 94 403
16:28:48 4 1000 191 8 W 0 93.3 421
16:31:47 4 1000 187 9 W 0 93.2 424
16:34:46 4 1001 184 5 S 0 93.6 412
16:37:45 4 1001 179 2 N 0 94.2 404
16:40:48 4 1001 176 5 NW 0 95.1 407
16:43:47 3 1001 172 10 W 0 95 407
16:46:48 3 1002 166 8 W 0 94.9 404
16:49:48 3 1001 156 11 NW 0 95 404
16:52:48 3 1002 147 2 SW 0 94.9 404
16:55:45 3 1001 141 4 SW 0 95.3 404
16:58:47 3 1001 132 4 SW 0 95.7 404
17:01:46 3 1001 123 2 O 0 96.1 407
17:04:47 3 1001 113 3 SW 0 96.2 404
17:07:47 3 1001 98 3 O 0 96.4 404
17:10:47 3 1002 67 5 W 0 96.6 405
17:13:47 3 1004 43 4 W 0 96.6 413
17:16:46 3 1002 30 7 W 0 96.6 407
17:19:46 3 1002 17 7 W 0 96.6 407
17:22:46 3 1002 17 5 W 0 96.6 407
17:25:48 3 1002 10 2 W 0 96.6 404
17:28:49 3 1002 6 6 W 0 96.6 407
17:31:46 3 1002 5 5 S 0 96.6 404
17:34:48 3 1002 0 11 NW 0 96.6 404
17:37:45 3 1002 0 11 N 0 96.6 404
17:40:45 3 1003 0 11 SW 0 96.6 406
17:43:47 3 1002 0 12 W 0 96 406
17:46:48 3 1002 0 10 NW 0 95.9 404
17:49:46 3 1002 0 8 S 0 96.2 403
17:52:47 3 1002 0 12 W 0 96.5 404
17:55:50 3 1002 0 7 NW 0 96.5 404
17:58:47 3 1002 0 6 W 0 96.5 407
18:01:47 3 1002 0 9 W 0 96.6 407
18:04:48 3 1002 0 4 NW 0 96.6 404
18:07:48 3 1002 0 9 W 0 96.6 407
18:10:48 3 1002 0 12 W 0 96.5 404
18:13:47 3 1002 0 9 NW 0 95.9 406
18:16:46 3 1002 0 5 SW 0 95.5 404
18:19:49 3 1002 0 17 NW 0 95.6 406
18:22:47 3 1002 0 8 W 0 95.6 401
18:25:48 3 1002 0 0 SW 0 95.9 404
18:28:47 3 1002 0 3 SW 0 96.4 404
18:31:46 3 1002 0 6 SO 0 96.6 406
18:34:49 3 1002 0 1 SW 0 96.6 401
18:37:49 3 1002 0 4 W 0 96.6 404
18:40:46 3 1002 0 2 S 0 96.6 404
18:43:47 3 1002 0 1 SW 0 96.6 407
18:46:47 2 1002 0 2 SW 0 96.6 403
18:49:47 2 1002 0 7 NW 0 96.6 404
18:52:47 2 1002 0 2 SW 0 96.6 407
18:55:47 2 1002 0 3 S 0 96.6 404
18:58:46 2 1002 0 2 SW 0 96.6 403
19:01:46 2 1003 0 3 W 0 96.6 405
19:04:47 2 1002 0 2 SW 0 96.6 406
19:07:47 2 1002 0 2 S 0 96.6 406
19:10:48 2 1003 0 2 NW 0 96.6 404
19:13:46 2 1002 0 2 W 0 96.6 410
19:16:46 2 1003 0 4 NW 0 96.6 413
19:19:46 2 1003 0 0 W 0 96.6 407
19:22:46 2 1004 0 5 NW 0 96.6 407
19:25:47 2 1002 0 2 N 0 96.6 416
19:28:48 2 1003 0 3 NW 0 96.6 425
19:31:46 2 1003 0 6 W 0 96.6 436
19:34:46 2 1003 0 4 NW 0 96.6 439
19:37:48 2 1003 0 4 NW 0 96.6 438
19:40:46 2 1003 0 1 W 0 96.6 434
19:43:47 2 1002 0 2 W 0 96.6 435
19:46:45 1 1002 0 1 W 0 96.6 443
19:49:46 2 1003 0 2 SO 0 96.6 445
19:52:47 1 1003 0 1 SW 0 96.6 448
19:55:47 1 1004 0 3 SW 0 96.6 454
19:58:45 1 1003 0 1 W 0 96.6 459
20:01:49 1 1003 0 0 SW 0 96.6 457
20:04:47 1 1004 0 3 W 0 96.6 460
20:07:48 1 1004 0 3 NW 0 96.6 462
20:10:48 1 1003 0 0 SW 0 96.6 461
20:13:48 1 1003 0 2 W 0 96.6 469
20:16:46 1 1004 0 1 SW 0 96.6 468
20:19:48 1 1003 0 2 SW 0 96.6 466
20:22:46 1 1003 0 0 SW 0 96.6 468
20:25:47 1 1003 0 2 SW 0 96.6 474
20:28:45 1 1003 0 3 W 0 96.6 477
20:31:47 1 1003 0 1 W 0 96.6 475
20:34:46 1 1003 0 1 W 0 96.6 472
20:37:45 1 1004 0 5 W 0 96.6 472
20:40:48 1 1003 0 0 SW 0 96.6 477
20:43:47 1 1003 0 1 SW 0 96.6 482
20:46:48 1 1003 0 1 W 0 96.6 483
20:49:49 1 1003 0 2 NW 0 96.6 490
20:52:49 1 1003 0 1 SW 0 96.6 490
20:55:47 1 1003 0 0 SO 0 96.6 491
20:58:48 1 1004 0 1 SW 0 96.6 485
21:01:46 1 1004 0 1 W 0 96.6 477
21:04:47 1 1004 0 1 SW 0 96.6 480
21:07:49 0 1003 0 2 W 0 96.6 477
21:10:49 0 1003 0 1 NW 0 96.6 479
21:13:48 0 1003 0 0 NW 0 96.6 475
21:16:46 0 1003 0 2 S 0 96.6 477
21:19:49 0 1003 0 0 S 0 96.6 480
21:22:54 0 1003 0 0 S 0 96.6 485
21:25:45 0 1004 0 0 N 0 96.6 490
21:28:47 0 1003 0 0 S 0 96.6 502
21:31:47 0 1003 0 4 SW 0 96.6 630
21:34:46 0 1003 0 0 S 0 96.6 620
21:37:46 0 1003 0 0 O 0 96.6 612
21:40:47 0 1003 0 0 W 0 96.6 612
21:43:47 0 1004 0 1 N 0 96.6 618
21:46:47 0 1004 0 0 O 0 96.6 627
21:49:47 0 1003 0 0 S 0 96.6 624
21:52:46 0 1003 0 0 SW 0 96.6 627
21:55:48 0 1003 0 1 SW 0 96.6 627
21:58:45 0 1003 0 0 S 0 96.6 630
22:01:49 0 1004 0 0 SW 0 96.6 638
22:04:45 0 1003 0 0 S 0 96.6 610
22:07:46 0 1004 0 1 SW 0 96.6 408
22:10:48 1 1004 0 0 SW 0 96.6 404
22:13:47 1 1004 0 1 SW 0 96.6 437
22:16:50 1 1004 0 0 SW 0 96.6 468
22:19:46 1 1004 0 0 SW 0 96.6 475
22:22:48 1 1004 0 0 S 0 96.6 462
22:25:47 1 1004 0 0 S 0 96.6 486
22:28:47 0 1004 0 0 S 0 96.6 466
22:31:49 0 1004 0 0 SW 0 96.6 459
22:34:46 0 1005 0 0 SW 0 96.6 462
22:37:47 0 1004 0 0 S 0 96.6 463
22:40:44 0 1005 0 0 S 0 96.6 461
22:43:48 0 1004 0 0 O 0 96.6 477
22:46:45 0 1004 0 0 SW 0 96.6 483
22:49:47 0 1004 0 1 O 0 96.6 486
22:52:47 0 1006 0 0 SW 0 96.6 491
22:55:46 0 1004 0 0 SO 0 96.6 491
22:58:49 0 1004 0 2 O 0 96.6 495
23:01:46 0 1004 0 0 N 0 96.6 495
23:04:47 1 1005 0 0 SO 0 96.6 489
23:07:47 1 1003 0 0 SO 0 96.6 492
23:10:49 1 1004 0 0 S 0 96.6 496
23:13:45 1 1003 0 2 SW 0 96.6 501
23:16:48 0 1004 0 0 S 0 96.6 509
23:19:48 0 1004 0 0 SO 0 96.6 519
23:22:48 0 1004 0 0 S 0 96.6 527
23:25:46 0 1004 0 0 O 0 96.6 541
23:28:48 0 1004 0 0 SO 0 96.6 544
23:31:46 0 1004 0 0 SO 0 96.6 551
23:34:46 0 1004 0 0 W 0 96.6 553
23:37:47 0 1005 0 0 O 0 96.6 551
23:40:47 0 1005 0 0 O 0 96.6 545
23:43:47 0 1004 0 1 SW 0 96.6 545
23:46:45 0 1005 0 1 S 0 96.6 545
23:49:46 0 1004 0 0 S 0 96.6 550
23:52:47 0 1004 0 1 SO 0 96.6 553
23:55:46 0 1005 0 1 SO 0 96.6 557
23:58:47 0 1004 0 2 SW 0 96.6 553

Letzte Änderung : 22-Jul-2022
Copyright Jens Köhler, Wolfsburg, Obere Dorfstraße 10d